Theta_e
346 353 354 357 356 358 362 361 353 352 354 353 352 352 351 351 354 356 348 348 336 337 337 336 339 341 342 342 341 335 336 339 339 337 337 333 331 338 339 336 332 340 338 339 339 335 332 331 332
349 354 355 356 358 360 362 357 357 355 354 353 352 351 350 351 349 348 349 346 338 338 341 342 342 341 341 341 335 337 339 341 341 340 337 337 336 339 338 339 340 340 341 339 340 337 335 333 332
354 355 357 357 357 359 362 358 353 351 353 354 352 351 351 350 350 349 347 346 341 341 340 340 339 339 340 335 338 339 339 342 341 342 343 339 338 340 339 340 341 341 341 341 340 336 336 335 335
354 357 358 359 359 357 351 354 351 351 351 352 350 351 350 351 349 347 346 345 346 339 337 335 336 336 333 333 339 337 342 340 341 342 343 340 339 339 340 341 341 342 336 332 342 337 339 332 341
358 357 357 359 356 355 353 350 350 351 352 351 351 351 349 350 348 346 345 346 345 339 335 334 334 332 330 335 335 341 341 341 342 343 344 340 339 339 341 340 342 340 338 339 336 336 336 330 342
355 352 358 359 355 351 351 350 351 350 352 352 350 350 350 349 347 346 344 347 347 337 333 332 329 336 338 334 341 341 341 341 341 342 340 340 339 340 340 339 340 340 341 339 336 336 336 333 336
354 353 354 354 354 353 351 351 351 351 352 352 349 350 349 350 347 346 346 346 347 342 332 328 332 338 335 331 335 338 340 340 339 340 340 339 340 340 339 340 336 341 341 341 339 333 334 334 342
351 351 357 353 354 355 349 349 351 350 352 352 349 349 349 349 348 347 348 349 347 344 332 328 331 336 329 331 336 337 339 340 340 340 339 338 339 341 340 339 339 343 340 340 341 339 333 333 337
346 352 358 351 350 352 348 350 349 351 352 352 352 347 347 346 345 344 348 345 345 343 334 328 328 330 330 329 330 337 339 337 337 340 340 340 340 340 341 336 342 342 341 341 341 340 335 333 338
347 356 354 348 348 349 348 349 348 350 351 351 350 349 345 343 342 343 342 345 347 345 340 335 332 339 342 338 344 338 345 345 341 341 347 347 343 340 342 339 335 338 339 340 340 341 338 334 336
348 353 350 348 349 349 350 351 349 347 352 352 349 348 345 341 342 342 342 341 346 347 348 344 342 346 345 348 345 345 346 345 346 343 343 342 347 343 342 340 338 335 336 337 338 341 342 338 338
350 351 349 348 349 348 351 351 351 350 351 351 349 347 342 341 341 339 341 342 344 349 348 346 344 348 347 348 347 346 348 346 346 346 345 345 346 347 344 340 339 339 338 340 339 340 340 340 339
346 346 346 347 346 348 350 348 347 352 352 351 349 345 340 337 338 341 341 342 342 342 344 345 343 347 347 346 348 347 346 347 346 346 347 345 344 342 341 345 340 339 339 344 344 345 344 342 337
345 347 347 348 348 349 351 350 351 351 350 350 349 344 339 337 338 339 338 341 342 340 341 344 344 347 345 345 347 347 346 347 347 345 347 345 343 344 343 341 339 337 341 338 345 346 345 343 340
348 348 348 348 349 350 351 352 351 350 351 350 349 347 343 338 336 338 338 340 341 340 337 341 346 348 347 347 343 346 346 345 346 346 346 346 346 343 346 344 340 337 338 345 348 345 344 344 344
344 346 348 349 352 346 354 357 350 349 349 349 349 347 343 340 340 340 339 336 338 339 337 340 345 346 343 341 341 344 347 348 349 348 347 349 349 346 345 345 343 340 337 344 347 345 346 345 345
343 344 344 351 351 346 349 355 349 349 349 348 348 348 345 345 343 339 341 341 341 341 342 340 343 339 339 334 327 337 345 347 350 349 349 349 345 345 345 346 343 342 341 337 341 346 344 345 347
340 340 344 347 349 351 354 354 348 348 349 348 347 348 347 344 344 339 340 339 342 341 342 341 339 343 344 345 334 336 349 351 349 348 350 350 344 350 349 346 345 342 344 341 343 346 343 344 346
338 333 341 341 344 352 356 354 351 348 349 348 348 347 347 346 345 343 339 337 338 340 342 339 337 346 345 344 338 346 347 350 348 349 349 351 349 347 346 346 346 346 345 344 344 344 341 345 345
332 333 334 333 338 352 353 354 352 349 349 349 348 348 347 346 344 341 338 336 335 339 341 337 333 343 343 340 343 350 347 350 348 348 350 348 351 347 350 345 346 347 346 342 344 346 340 344 341
328 329 335 339 335 349 353 355 353 352 350 350 350 349 349 349 348 341 338 337 335 336 338 336 331 341 335 334 347 351 348 348 348 349 348 350 350 350 348 346 347 346 345 347 346 345 346 338 345
328 329 330 330 335 356 348 358 347 351 350 349 350 350 350 350 350 348 347 342 341 342 336 330 327 333 331 336 345 347 348 348 347 351 351 351 350 349 350 343 343 344 346 345 346 345 345 344 342
328 328 329 330 328 330 347 351 350 350 352 351 349 350 350 350 351 350 350 349 347 347 340 331 329 328 332 337 339 351 351 351 353 350 348 349 352 350 350 349 344 343 344 345 344 344 346 344 345
329 327 327 327 327 345 347 348 342 347 351 351 349 349 349 349 350 350 350 349 349 348 341 335 332 334 339 337 341 348 353 352 353 354 349 349 351 344 346 349 348 349 347 348 346 346 344 344 345
327 325 325 334 334 340 339 339 336 342 343 344 348 348 348 348 348 348 348 350 348 346 342 339 338 341 342 342 343 343 345 348 351 349 350 345 348 347 344 346 345 349 347 350 347 347 346 345 345
329 329 332 336 334 341 337 346 346 340 340 342 344 346 347 348 348 347 346 346 346 345 343 341 340 342 343 343 344 345 346 344 345 346 346 347 349 349 350 348 339 346 348 346 348 344 344 345 344
329 327 328 329 330 344 346 343 340 342 342 345 340 342 343 345 348 348 347 346 345 344 343 342 341 342 343 343 344 345 346 346 340 342 345 344 346 353 354 350 349 349 349 346 347 346 344 345 345
329 328 328 327 336 348 347 346 343 347 344 345 339 337 340 344 343 349 349 348 347 346 345 343 342 343 344 344 345 346 347 346 342 339 340 343 349 356 351 350 350 350 351 352 347 346 345 345 344
332 329 328 328 333 333 349 346 342 344 342 343 336 335 335 338 345 350 350 350 349 348 347 345 344 344 345 346 347 347 347 346 345 341 340 342 347 350 352 353 351 351 351 353 352 345 346 344 344
333 327 325 326 328 333 343 346 339 338 341 341 341 336 338 341 351 351 350 350 350 350 350 348 348 348 349 349 350 349 349 350 349 347 345 346 350 351 352 353 349 354 354 354 353 349 346 346 343
Wind_Speed
3 3 4 3 1 2 4 3 5 14 13 27 22 19 17 19 4 5 28 20 25 23 20 17 15 14 13 12 10 9 10 11 11 9 10 10 11 11 12 12 15 17 18 17 18 19 20 23 23
6 3 7 3 1 2 2 5 11 19 24 30 25 24 19 11 20 28 31 21 24 24 21 19 17 15 13 11 9 9 10 9 9 9 9 11 11 11 13 13 16 18 19 18 18 19 21 23 26
3 4 3 3 2 3 3 3 16 19 22 13 8 14 7 13 20 23 32 22 26 25 23 20 17 16 13 11 10 9 9 9 9 9 9 12 12 13 14 15 19 20 19 18 17 18 20 22 24
1 2 5 0 5 3 9 7 11 12 16 16 21 10 13 19 20 33 26 22 23 22 21 19 17 16 14 11 9 9 9 10 9 6 10 13 14 16 15 17 20 19 17 17 17 17 19 21 22
5 3 2 3 6 9 8 17 14 9 14 19 15 10 11 12 31 33 22 29 22 20 19 20 18 16 14 12 11 11 11 11 12 15 18 17 17 17 17 17 18 17 17 17 16 16 18 21 22
2 5 1 3 13 10 11 18 19 16 22 21 20 15 8 24 35 35 28 34 22 20 19 20 18 15 15 12 12 12 13 13 15 18 20 18 18 17 16 16 16 16 16 15 15 17 18 21 23
6 1 4 8 13 6 8 21 14 19 22 13 27 6 16 30 31 32 30 33 26 19 19 19 19 17 14 13 12 13 13 14 15 17 17 17 17 16 15 14 14 14 15 13 12 16 17 18 17
9 3 5 8 10 10 11 17 24 18 17 26 26 8 16 38 37 27 35 28 22 19 24 19 18 16 14 14 14 14 14 13 14 14 13 13 13 13 13 12 12 14 13 11 9 12 16 16 15
6 1 3 4 3 11 11 16 21 21 21 11 14 26 41 42 33 30 36 31 25 21 19 19 18 17 14 14 14 15 16 14 13 12 12 12 11 10 10 10 10 12 13 10 9 10 14 15 17
4 3 9 5 5 13 15 15 17 10 11 15 21 18 48 37 34 32 35 30 28 22 20 16 16 16 13 15 12 12 11 14 11 6 7 8 7 8 7 9 6 9 11 8 8 8 12 14 19
2 6 8 9 23 11 16 20 7 15 4 19 36 40 39 36 29 36 31 21 30 27 20 17 17 17 10 7 8 8 7 10 8 6 5 7 9 7 4 6 7 9 10 9 6 5 5 10 13
7 20 13 5 4 12 14 13 11 13 11 30 36 41 37 33 31 38 24 24 28 31 22 21 18 17 13 9 6 7 4 6 6 4 7 4 8 7 5 4 7 8 8 8 8 8 3 4 10
12 22 14 6 14 21 21 18 11 28 37 34 35 35 33 30 26 27 26 25 25 22 21 20 17 19 15 9 5 3 7 4 3 3 4 6 6 6 6 10 9 8 12 12 9 10 6 8 20
8 21 13 10 8 20 15 14 23 29 39 36 36 35 33 30 30 30 26 22 23 21 15 18 15 15 12 13 10 7 4 5 2 3 4 3 8 7 11 10 10 10 11 4 11 9 2 6 24
20 11 10 10 12 12 27 14 13 30 34 35 33 33 35 30 32 27 28 24 26 22 17 17 18 16 15 16 16 10 7 4 2 3 5 5 3 5 5 9 12 16 12 6 9 8 5 10 14
17 27 6 7 13 6 7 6 12 34 30 30 31 30 29 27 29 30 33 23 25 26 24 21 23 16 15 16 13 14 12 5 5 4 6 5 8 7 5 9 11 14 16 14 9 7 6 11 7
5 5 9 8 13 6 6 9 11 30 31 27 27 29 30 30 24 30 27 29 28 27 21 29 19 14 10 12 12 10 13 8 5 8 8 8 5 8 9 7 9 9 12 16 14 12 8 8 6
7 11 9 8 11 24 10 10 9 22 29 25 26 29 29 31 27 32 27 30 28 31 24 25 22 17 17 9 7 10 10 6 7 6 7 7 7 8 7 6 6 4 11 17 19 14 11 11 11
18 6 11 7 11 24 23 13 13 19 18 24 26 27 29 30 28 27 26 26 30 34 29 24 20 14 15 15 12 12 9 8 8 9 8 7 3 2 4 6 7 5 9 12 13 14 12 11 14
15 6 7 5 5 25 17 12 11 13 18 21 27 29 26 23 29 32 33 33 30 28 35 31 28 23 18 15 15 9 9 10 7 7 11 9 8 6 5 4 6 6 9 7 8 13 14 15 15
6 6 6 10 6 16 18 5 7 7 16 22 24 25 26 29 28 32 32 33 34 32 34 36 31 26 21 20 17 13 13 11 11 9 10 11 10 10 11 9 7 7 7 9 9 12 17 19 15
4 7 4 4 7 10 6 3 4 3 7 14 24 27 28 32 32 34 34 35 33 30 36 34 33 33 23 20 20 17 15 16 14 11 13 12 12 10 9 11 8 8 8 8 10 8 16 21 22
6 9 5 6 6 1 6 6 4 5 8 10 20 28 28 31 33 34 33 31 34 31 33 35 32 34 27 23 20 20 18 14 11 9 11 14 19 13 10 9 11 9 10 9 10 11 12 14 20
7 7 8 6 3 4 4 5 9 9 18 5 14 24 27 30 32 31 30 28 28 27 25 31 33 31 26 25 18 24 22 18 19 15 13 15 10 8 12 9 13 14 13 13 12 10 10 11 15
7 3 4 5 3 5 9 6 7 5 3 2 6 8 26 30 32 33 32 31 30 31 27 26 29 27 28 26 22 21 25 24 21 20 19 16 9 13 3 5 15 13 13 17 13 13 15 13 13
7 4 5 3 5 4 7 2 5 12 25 22 8 16 14 33 34 36 34 37 36 36 33 30 31 30 30 28 25 22 19 22 25 22 16 16 10 10 7 8 3 4 8 14 17 14 15 16 16
9 5 7 2 3 9 3 3 4 11 18 25 18 25 30 15 40 38 39 39 41 40 40 36 38 37 33 29 27 26 23 21 22 22 22 21 18 13 16 12 16 12 13 12 17 15 14 16 18
6 7 6 5 2 5 3 2 5 8 16 18 16 28 41 22 32 36 36 42 41 41 39 38 39 37 33 32 30 26 23 21 21 21 22 20 19 15 12 16 16 16 15 12 17 16 14 15 17
6 6 4 1 2 4 5 0 7 11 16 19 21 42 47 51 20 20 11 28 40 39 40 40 40 40 34 32 29 28 24 23 23 24 23 23 23 24 24 22 19 21 19 17 18 18 16 15 13
5 9 3 5 9 4 5 2 7 7 16 36 45 57 44 47 20 16 15 16 17 15 34 38 33 29 26 21 21 21 20 19 19 18 18 16 15 12 14 15 26 24 23 23 22 21 20 19 15
Wind_Direction
166 85 312 310 73 59 154 219 148 103 71 74 78 83 82 46 30 140 133 157 154 149 144 142 138 133 127 118 104 96 91 90 91 97 110 117 117 106 106 107 118 120 117 109 105 108 109 110 111
191 264 257 272 112 108 179 128 92 92 100 89 78 79 56 63 101 128 136 156 150 142 138 135 133 131 129 118 108 96 87 86 90 101 111 122 122 114 112 110 121 126 123 115 108 109 111 113 116
185 230 235 207 199 161 109 286 118 114 119 102 102 71 69 114 117 133 148 152 145 139 137 134 134 132 128 121 110 96 87 90 94 106 122 123 125 121 114 109 122 129 127 120 115 114 115 119 120
5 288 257 63 119 134 152 208 104 100 122 97 110 72 93 136 129 138 147 143 143 144 142 136 135 132 127 120 109 98 91 89 84 103 136 126 125 123 114 111 121 122 127 122 120 117 120 124 123
297 313 290 278 155 140 160 130 127 130 122 127 110 102 113 132 148 145 148 145 148 141 144 139 136 129 125 119 105 98 93 93 79 88 131 129 128 122 116 116 124 122 119 119 119 123 126 132 126
30 10 321 249 113 120 133 142 154 141 116 109 105 112 142 135 151 155 147 159 153 140 145 141 136 130 124 119 106 101 100 97 92 103 118 124 123 122 121 124 127 126 126 121 121 126 131 132 136
348 336 275 356 129 130 145 165 162 151 144 133 138 104 152 153 160 152 164 166 164 151 149 147 139 133 123 117 108 100 101 103 101 106 116 119 122 124 126 128 132 129 128 130 125 126 130 136 139
184 156 276 218 135 132 153 148 151 153 143 143 146 147 168 158 169 161 155 157 161 155 154 150 141 132 117 108 102 99 96 102 105 108 106 109 117 126 125 125 131 129 132 129 129 132 123 130 145
136 269 337 299 133 148 141 113 103 88 127 166 173 151 159 159 163 142 146 148 158 145 149 148 142 129 114 98 99 98 94 91 102 111 128 126 123 125 127 123 131 130 126 122 111 129 132 136 147
55 281 198 236 58 133 122 110 97 113 117 79 104 145 153 161 159 157 146 142 158 148 139 152 151 136 111 102 93 108 101 82 80 79 117 136 134 96 134 124 140 138 130 125 121 144 159 142 150
130 238 178 65 87 105 100 141 112 134 155 145 135 145 160 156 158 155 162 147 162 155 152 140 131 140 149 142 104 98 98 97 76 42 55 148 134 89 127 142 152 154 151 139 161 160 137 164 155
271 244 259 95 153 148 120 136 125 167 172 148 143 155 156 161 160 164 172 149 134 159 154 156 153 153 151 147 103 113 114 127 95 65 58 113 117 131 172 139 165 163 161 184 195 167 238 241 166
240 269 103 113 91 88 108 100 72 114 123 137 144 150 156 159 163 169 168 163 148 136 147 163 170 165 168 141 166 126 112 127 107 83 130 189 187 188 166 189 186 194 160 174 145 186 205 165 158
283 283 147 142 106 108 94 104 101 117 135 137 147 154 157 165 172 175 167 174 176 150 163 151 165 174 165 167 168 142 137 130 193 179 218 179 226 262 166 180 205 215 209 239 179 178 125 158 164
230 281 139 146 130 109 103 88 99 140 137 144 151 161 164 169 174 173 182 192 185 171 186 169 174 188 192 203 187 179 152 163 175 228 250 249 292 255 197 207 207 205 208 173 110 131 153 147 162
159 228 143 163 115 57 80 124 129 126 136 145 152 162 166 176 179 177 185 177 171 173 186 179 189 202 233 218 209 203 180 142 211 251 236 265 309 278 231 207 211 192 195 192 157 156 184 170 165
235 156 145 162 142 105 44 133 152 137 133 149 155 164 170 180 180 178 177 175 188 186 178 176 189 206 214 211 204 192 181 187 199 237 197 233 253 227 229 211 194 191 196 196 195 173 196 209 166
287 154 165 158 140 69 308 134 127 131 140 150 153 165 175 179 187 176 180 188 189 193 174 177 185 212 220 200 210 191 187 190 233 234 234 248 289 217 215 220 216 189 197 193 199 188 201 197 216
270 210 152 159 149 139 206 148 146 137 135 152 159 167 181 186 185 191 189 193 197 198 191 181 193 189 196 217 228 197 188 195 201 224 250 263 283 260 240 232 238 213 182 187 217 198 189 178 194
277 118 145 140 167 130 147 143 151 151 152 164 162 172 183 183 170 176 190 194 200 200 203 209 212 208 211 230 214 207 217 211 217 235 254 253 263 300 293 263 239 228 208 229 198 187 193 203 216
316 88 153 166 190 125 114 115 155 151 155 168 172 179 182 185 187 185 191 199 206 206 205 212 210 211 219 223 220 207 226 226 222 224 239 233 260 290 285 275 246 248 242 242 220 202 197 205 203
47 337 359 316 133 152 153 180 332 218 190 174 176 182 189 193 195 203 207 206 211 214 212 212 207 214 224 221 218 215 216 223 229 231 226 255 253 265 278 266 255 253 251 249 242 248 217 204 207
268 304 302 283 276 160 84 82 280 336 243 198 181 186 191 190 190 194 205 200 206 217 210 210 213 216 224 223 217 216 225 225 239 246 225 232 248 241 257 270 262 256 249 242 244 260 233 218 212
258 272 292 275 223 70 199 108 212 228 205 191 182 184 179 181 188 196 204 209 207 209 203 207 214 218 225 228 230 223 229 229 237 246 246 250 259 150 260 240 245 260 248 239 239 240 241 233 228
260 280 302 351 0 185 179 121 224 207 99 60 354 178 182 187 189 190 190 198 199 209 207 204 212 217 222 233 237 233 231 236 234 238 245 264 242 224 348 339 241 232 237 246 240 245 242 255 245
295 191 170 209 240 157 143 52 357 58 55 46 5 332 306 193 193 196 198 197 202 206 209 209 219 222 226 234 239 246 247 243 244 239 246 264 279 284 296 276 321 240 241 238 241 248 245 243 243
298 344 256 263 263 112 60 26 251 38 38 41 360 309 276 243 191 197 207 203 203 204 209 212 217 221 228 235 239 244 250 256 251 249 242 253 263 262 273 272 268 290 255 239 240 249 252 244 240
197 242 342 343 29 107 90 186 200 61 61 30 25 304 289 299 297 197 207 210 209 212 212 213 217 222 231 234 239 244 250 259 265 253 247 246 250 255 266 269 266 263 260 255 247 246 251 247 240
343 313 326 125 117 158 150 282 166 154 145 148 146 226 246 261 263 140 154 217 211 215 214 212 216 220 226 233 238 242 249 261 263 255 254 251 251 253 246 257 262 264 262 263 263 256 257 257 254
302 296 300 118 298 40 116 48 121 150 171 172 184 207 227 266 110 111 116 131 141 169 210 207 210 217 223 232 241 249 256 263 263 263 261 262 261 267 272 262 246 252 259 263 267 267 263 263 265